Marion, IN

7:52 PM EST on February 22, 2017 (GMT -0500)
Marion Municipal

Weather History for KMZZ - November, 2013

Change the Weather History Date:

Wednesday, November 20, 2013

  Actual Average (KMIE) Record (KMIE)
Temperature  
Mean Temperature 36 °F -  
Max Temperature 78 °F 50 °F 69 °F (1985)
Min Temperature 27 °F 33 °F 14 °F (1969)
Degree Days  
Heating Degree Days 29    
Moisture  
Dew Point 27 °F    
Average Humidity 71    
Maximum Humidity 85    
Minimum Humidity 54    
Precipitation  
Precipitation 0.00 in - - ()
Sea Level Pressure  
Sea Level Pressure 30.26 in    
Wind  
Wind Speed 7 mph (ESE)    
Max Wind Speed 17 mph    
Max Gust Speed 21 mph    
Visibility 10 miles    
Events      
Averages and records for this station are not official NWS values.
T = Trace of Precipitation, MM = Missing Value Source: NWS Daily Summary

Daily Weather History Graph

Daily Weather History Graph

Search for Another Location

Airport or City:

Trip Planner

Search our weather history database for the weather conditions in past years. The results will help you decide how hot, cold, wet, or windy it might be!

Date:

Astronomy

Nov. 20, 2013 Rise Set
Actual Time 7:35 AM EST 5:21 PM EST
Civil Twilight 7:05 AM EST 5:51 PM EST
Nautical Twilight 6:32 AM EST 6:24 PM EST
Astronomical Twilight 5:59 AM EST 6:56 PM EST
Moon 8:03 PM EST (11/20) 9:59 AM EST (11/20)
Length of Visible Light 10h 45m
Length of Day
9h 46m
Waning Gibbous, 91% of the Moon is Illuminated
Nov 20
Waning Gibbous
Nov 25
Last Quarter
Dec 2
New
Dec 9
First Quarter
Dec 17
Full

Hourly Weather History & Observations

Time (EST) Temp. Windchill Dew Point Humidity Pressure Visibility Wind Dir Wind Speed Gust Speed Precip Events Conditions
12:15 AM 30.4 °F 26.9 °F 24.1 °F 77% 30.34 in 10.0 mi ESE 3.5 mph - N/A   Clear
12:35 AM 29.7 °F 26.1 °F 23.9 °F 79% 30.34 in 10.0 mi ESE 3.5 mph - N/A   Clear
12:55 AM 29.8 °F 26.3 °F 23.9 °F 79% 30.34 in 10.0 mi ESE 3.5 mph - N/A   Clear
1:15 AM 29.8 °F 26.3 °F 24.1 °F 79% 30.33 in 10.0 mi East 3.5 mph - N/A   Clear
1:35 AM 29.5 °F 25.9 °F 23.9 °F 80% 30.33 in 10.0 mi ESE 3.5 mph - N/A   Clear
1:55 AM 29.3 °F 24.3 °F 23.9 °F 80% 30.33 in 10.0 mi East 4.6 mph - N/A   Clear
2:15 AM 29.1 °F 23.0 °F 23.9 °F 81% 30.33 in 10.0 mi East 5.8 mph - N/A   Clear
2:35 AM 29.1 °F 23.0 °F 23.9 °F 81% 30.33 in 10.0 mi East 5.8 mph - N/A   Clear
2:55 AM 29.1 °F 24.1 °F 23.9 °F 81% 30.34 in 10.0 mi East 4.6 mph - N/A   Clear
3:15 AM 28.8 °F 23.7 °F 23.9 °F 82% 30.34 in 10.0 mi East 4.6 mph - N/A   Clear
3:35 AM 28.4 °F 24.6 °F 23.7 °F 83% 30.34 in 10.0 mi East 3.5 mph - N/A   Clear
3:55 AM 28.4 °F 24.6 °F 23.5 °F 82% 30.34 in 10.0 mi East 3.5 mph - N/A   Clear
4:15 AM 28.4 °F 23.3 °F 23.7 °F 83% 30.34 in 10.0 mi ENE 4.6 mph - N/A   Clear
4:35 AM 28.0 °F 24.2 °F 23.7 °F 84% 30.34 in 10.0 mi ENE 3.5 mph - N/A   Clear
4:55 AM 28.2 °F 24.4 °F 23.9 °F 84% 30.34 in 10.0 mi ENE 3.5 mph - N/A   Clear
5:15 AM 27.5 °F 21.1 °F 23.4 °F 84% 30.34 in 10.0 mi ENE 5.8 mph - N/A   Clear
5:35 AM 27.5 °F 19.3 °F 23.5 °F 85% 30.33 in 10.0 mi East 8.1 mph - N/A   Clear
5:55 AM 27.9 °F 20.6 °F 23.7 °F 84% 30.33 in 10.0 mi East 6.9 mph - N/A   Clear
6:15 AM 27.5 °F 23.6 °F 23.5 °F 85% 30.34 in 10.0 mi East 3.5 mph - N/A   Clear
6:35 AM 27.3 °F 20.9 °F 23.2 °F 84% 30.34 in 10.0 mi East 5.8 mph - N/A   Clear
6:55 AM 27.3 °F 19.9 °F 23.2 °F 84% 30.33 in 10.0 mi East 6.9 mph - N/A   Clear
7:15 AM 27.3 °F 19.1 °F 23.4 °F 85% 30.34 in 10.0 mi East 8.1 mph - N/A   Clear
7:35 AM 27.7 °F 19.6 °F 23.4 °F 84% 30.33 in 10.0 mi East 8.1 mph - N/A   Clear
7:55 AM 28.2 °F 20.2 °F 23.5 °F 83% 30.33 in 7.0 mi East 8.1 mph - N/A   Clear
8:15 AM 28.9 °F 21.1 °F 23.7 °F 81% 30.33 in 10.0 mi East 8.1 mph - N/A   Clear
8:35 AM 30.2 °F 21.3 °F 24.1 °F 78% 30.33 in 10.0 mi ESE 10.4 mph - N/A   Clear
8:55 AM 31.1 °F 21.9 °F 24.3 °F 76% 30.32 in 7.0 mi ESE 11.5 mph 17.3 mph N/A   Clear
9:15 AM 31.6 °F 23.1 °F 24.3 °F 74% 30.31 in 10.0 mi ESE 10.4 mph - N/A   Clear
9:35 AM 32.0 °F 22.5 °F 24.4 °F 74% 30.31 in 10.0 mi ESE 12.7 mph - N/A   Clear
9:55 AM 32.2 °F 23.2 °F 25.0 °F 75% 30.31 in 10.0 mi ESE 11.5 mph - N/A   Clear
10:15 AM 33.3 °F 23.7 °F 25.5 °F 73% 30.31 in 10.0 mi ESE 13.8 mph 17.3 mph N/A   Clear
10:35 AM 34.0 °F 24.6 °F 26.1 °F 73% 30.31 in 10.0 mi ESE 13.8 mph 20.7 mph N/A   Clear
10:55 AM 34.5 °F 24.1 °F 25.9 °F 71% 30.30 in 10.0 mi ESE 17.3 mph - N/A   Clear
11:15 AM 35.1 °F 26.4 °F 26.2 °F 70% 30.29 in 10.0 mi SE 12.7 mph - N/A   Clear
11:35 AM 36.1 °F 27.7 °F 27.0 °F 69% 30.28 in 10.0 mi SE 12.7 mph - N/A   Clear
11:55 AM 37.4 °F 29.8 °F 27.1 °F 66% 30.28 in 10.0 mi SE 11.5 mph - N/A   Clear
12:15 PM 38.7 °F 30.9 °F 27.5 °F 64% 30.26 in 10.0 mi SSE 12.7 mph 17.3 mph N/A   Clear
12:35 PM 39.4 °F 31.4 °F 27.3 °F 62% 30.25 in 10.0 mi SE 13.8 mph - N/A   Clear
12:55 PM 39.6 °F 32.5 °F 28.2 °F 64% 30.24 in 10.0 mi ESE 11.5 mph - N/A   Clear
1:15 PM 40.3 °F 33.9 °F 28.8 °F 63% 30.23 in 10.0 mi ESE 10.4 mph - N/A   Clear
1:35 PM 41.5 °F 35.9 °F 29.3 °F 62% 30.22 in 10.0 mi SE 9.2 mph - N/A   Clear
1:55 PM 42.8 °F 37.5 °F 29.7 °F 60% 30.22 in 10.0 mi SSE 9.2 mph - N/A   Clear
2:15 PM 43.5 °F 38.3 °F 29.1 °F 57% 30.21 in 10.0 mi SE 9.2 mph - N/A   Clear
2:35 PM 44.2 °F 38.4 °F 29.8 °F 57% 30.19 in 10.0 mi SE 11.5 mph - N/A   Clear
2:55 PM 44.8 °F 39.9 °F 30.0 °F 56% 30.19 in 10.0 mi SE 9.2 mph - N/A   Clear
3:15 PM 45.5 °F 41.3 °F 29.7 °F 54% 30.20 in 10.0 mi SE 8.1 mph - N/A   Clear
3:35 PM 45.5 °F 40.8 °F 29.7 °F 54% 30.20 in 10.0 mi SSE 9.2 mph - N/A   Clear
3:55 PM 45.0 °F 39.3 °F 29.7 °F 55% 30.19 in 10.0 mi SE 11.5 mph - N/A   Clear
4:15 PM 43.5 °F 38.9 °F 29.7 °F 58% 30.19 in 10.0 mi SE 8.1 mph - N/A   Clear
4:35 PM 42.4 °F 38.1 °F 30.0 °F 61% 30.19 in 7.0 mi SE 6.9 mph - N/A   Clear
4:55 PM 42.1 °F 38.4 °F 30.0 °F 62% 30.19 in 10.0 mi SSE 5.8 mph - N/A   Clear
5:15 PM 42.1 °F 38.4 °F 30.0 °F 62% 30.19 in 10.0 mi SSE 5.8 mph - N/A   Clear
5:35 PM 41.4 °F 38.4 °F 30.6 °F 65% 30.20 in 10.0 mi SSE 4.6 mph - N/A   Clear
5:55 PM 41.2 °F 37.3 °F 30.7 °F 66% 30.20 in 10.0 mi SSE 5.8 mph - N/A   Clear
6:15 PM 41.0 °F 37.1 °F 30.4 °F 66% 30.20 in 10.0 mi SSE 5.8 mph - N/A   Clear
6:35 PM 40.5 °F 35.8 °F 30.2 °F 67% 30.20 in 10.0 mi SSE 6.9 mph - N/A   Clear
6:55 PM 41.0 °F 37.1 °F 30.2 °F 65% 30.20 in 10.0 mi SSE 5.8 mph - N/A   Clear
7:15 PM 40.8 °F 36.9 °F 30.6 °F 67% 30.20 in 10.0 mi SSE 5.8 mph - N/A   Clear
7:35 PM 41.2 °F 36.6 °F 30.6 °F 66% 30.20 in 10.0 mi SE 6.9 mph - N/A   Clear
7:55 PM 41.2 °F 35.5 °F 30.6 °F 66% 30.19 in 10.0 mi SE 9.2 mph - N/A   Clear
8:15 PM 41.4 °F 35.7 °F 30.4 °F 65% 30.20 in 10.0 mi SSE 9.2 mph - N/A   Mostly Cloudy
8:35 PM 41.5 °F 35.9 °F 30.6 °F 65% 30.19 in 10.0 mi SE 9.2 mph - N/A   Scattered Clouds
8:55 PM 41.2 °F 36.0 °F 30.9 °F 67% 30.19 in 10.0 mi SSE 8.1 mph - N/A   Clear
9:15 PM 41.2 °F 36.6 °F 30.9 °F 67% 30.19 in 10.0 mi SE 6.9 mph - N/A   Scattered Clouds
9:35 PM 41.2 °F 36.0 °F 31.1 °F 67% 30.18 in 10.0 mi SE 8.1 mph - N/A   Mostly Cloudy
9:55 PM 41.2 °F 35.0 °F 31.1 °F 67% 30.18 in 10.0 mi SSE 10.4 mph - N/A   Mostly Cloudy
10:15 PM 41.7 °F 36.7 °F 31.5 °F 67% 30.19 in 10.0 mi SSE 8.1 mph - N/A   Overcast
10:35 PM 42.4 °F 37.5 °F 31.8 °F 66% 30.20 in 10.0 mi SSE 8.1 mph - N/A   Overcast
10:55 PM 43.0 °F 38.2 °F 32.0 °F 65% 30.20 in 10.0 mi SSE 8.1 mph - N/A   Overcast
11:15 PM 43.7 °F 39.7 °F 32.0 °F 63% 30.19 in 10.0 mi SSE 6.9 mph - N/A   Overcast
11:35 PM 43.7 °F 39.7 °F 32.2 °F 64% 30.20 in 10.0 mi SSE 6.9 mph - N/A   Overcast
11:55 PM 43.5 °F 38.9 °F 32.5 °F 65% 30.20 in 10.0 mi SSE 8.1 mph - N/A   Overcast